Flag for Switzerland Weather past 2 weeks in Lugano, Switzerland

Now
55 °F

Overcast.


Feels Like: 55 °F
Forecast: 52 / 67 °F
Wind: 3 mph from North

Location: Lugano Airport

Current Time: Sep 4, 2015 at 6:01:45 AM

Latest Report: Sep 4, 2015 at 5:20 AM


Visibility: 5 mi

Pressure: 29.92 "Hg

Humidity: 100%

Dew point: 55 °F

Location of LuganoLocation

Historic Weather in Lugano — Graph

°F

Lugano temperature yesterday

Maximum temperature yesterday: 73 °F (at 3:20 PM)
Minimum temperature yesterday: 59 °F (at 9:20 PM)
Average temperature yesterday: 65 °F

Past Weeks' High & Low Weather Summary

 TemperatureHumidityPressure
High88 °F (Aug 29, 2:50 PM)100% (Aug 20, 4:50 AM)30.24 "Hg (Aug 20, 4:50 AM)
Low55 °F (Aug 20, 4:50 AM)37% (Aug 20, 2:20 PM)29.83 "Hg (Sep 3, 5:50 PM)
Average70 °F76%30.05 "Hg
* Reported Aug 20 4:20 AM — Sep 4 4:20 AM, Lugano, Weather by CustomWeather, © 2015

Note: Actual official high and low records may vary slightly from our data, if they occured in-between our weather recording intervals... More about our weather records

Advertising

Lugano weather history for previous 24 hours

 ConditionsComfort  
Time TempWeatherWind HumidityBarometerVisibility
4:20 AM
Fri, Sep 4
55 °FPassing clouds.1 mph100%29.92 "Hg4 mi
3:50 AM57 °FLow clouds.1 mph94%29.92 "HgN/A
3:20 AM55 °FPassing clouds.2 mph100%29.92 "HgN/A
2:50 AM57 °FPassing clouds.2 mph94%29.92 "HgN/A
2:20 AM57 °FPassing clouds.1 mph100%29.92 "HgN/A
1:50 AM57 °FPassing clouds.1 mph100%29.92 "HgN/A
1:20 AM57 °FPassing clouds.1 mph100%29.92 "HgN/A
12:50 AM59 °FPartly cloudy.2 mph100%29.95 "HgN/A
12:20 AM59 °FPassing clouds.1 mph94%29.92 "HgN/A
11:20 PM
Thu, Sep 3
59 °FPartly cloudy.1 mph94%29.92 "HgN/A
10:50 PM59 °FOvercast.2 mph100%29.92 "HgN/A
10:20 PM61 °FSprinkles. Overcast.2 mph88%29.92 "HgN/A
9:50 PM59 °FLight rain. Partly cloudy.12 mph94%29.92 "HgN/A
9:20 PM59 °FLots of rain. Fog.8 mph100%29.95 "Hg2 mi
8:50 PM63 °FThunderstorms. Broken clouds.7 mph88%29.95 "HgN/A
8:20 PM61 °FThunderstorms. Partly sunny.5 mph88%29.89 "HgN/A
7:50 PM61 °FThundershowers. Broken clouds.2 mph94%29.89 "Hg3 mi
7:20 PM61 °FThundershowers. Broken clouds.9 mph88%29.89 "Hg2 mi
6:50 PM61 °FThunderstorms. Broken clouds.12 mph94%29.89 "Hg5 mi
6:20 PM68 °FThunderstorms. Broken clouds.13 mph73%29.86 "HgN/A
5:50 PM72 °FThundershowers. Broken clouds.2 mph69%29.83 "HgN/A
5:20 PM73 °FThundershowers. Broken clouds.2 mph65%29.86 "HgN/A
4:50 PM73 °FBroken clouds.1 mph61%29.86 "HgN/A
4:20 PM73 °FBroken clouds.2 mph61%29.86 "HgN/A
3:50 PM73 °FBroken clouds.2 mph61%29.89 "HgN/A
3:20 PM73 °FBroken clouds.2 mph65%29.89 "HgN/A
2:50 PM72 °FBroken clouds.2 mph69%29.89 "HgN/A
2:20 PM72 °FBroken clouds.2 mph73%29.92 "HgN/A
1:50 PM72 °FBroken clouds.1 mph73%29.92 "HgN/A
1:20 PM68 °FBroken clouds.2 mph78%29.92 "HgN/A
12:50 PM68 °FPartly sunny.2 mph78%29.92 "HgN/A
12:20 PM68 °FPartly sunny.1 mph83%29.92 "HgN/A
11:50 AM66 °FPartly sunny.1 mph83%29.92 "HgN/A
11:20 AM66 °FPartly sunny.1 mph83%29.92 "HgN/A
10:50 AM64 °FPartly sunny.2 mph88%29.92 "HgN/A
10:20 AM64 °FRain showers. Broken clouds.2 mph88%29.92 "Hg5 mi
9:50 AM64 °FRain showers. Broken clouds.1 mph88%29.95 "HgN/A
9:20 AM64 °FSprinkles. Broken clouds.1 mph88%29.92 "HgN/A
8:50 AM63 °FSprinkles. Broken clouds.1 mph88%29.92 "HgN/A
8:20 AM63 °FPartly sunny.1 mph94%29.92 "HgN/A
7:50 AM63 °FPartly sunny.3 mph94%29.92 "HgN/A
7:20 AM61 °FPassing clouds.2 mph94%29.92 "HgN/A
6:50 AM61 °FPassing clouds.1 mph100%29.92 "HgN/A
6:20 AM63 °FPassing clouds.6 mph94%29.92 "HgN/A
Weather by CustomWeather, © 2015

See weather overviewHow to use our weather pages